User: anonymous   Login
Location: ?astrovice
(49.6513°N, 14.9287°E)
Time: 10:30:55
(UTC+00:00)
Language:

STARLINK-1217 - Orbit

View from above orbital plane
View from above orbital plane
View from above satellite
View from above satellite

Ground track
Ground track

The orbit data is extracted from the following two-line orbital elements,

1 45226U 20012BA  20190.91667824 -.00036940  00000-0 -25290-2 0  9993
2 45226  53.0014 298.1803 0001360  93.7410 176.0625 15.05584523 22480
Epoch (UTC): 08 July 2020 22:00:01
Eccentricity: 0.0001360
inclination: 53.0014°
perigee height: 549 km
apogee height: 550 km
right ascension of ascending node: 298.1803°
argument of perigee: 93.7410°
revolutions per day: 15.05584523
mean anomaly at epoch: 176.0625°
orbit number at epoch: 2248

The dashed part of the orbit path shows where the satellite is in the earth's shadow,  

DLR